Location: Guferjoch
(46.7462°N, 8.4506°E)
Time: 23:50:02
(UTC+00:00)

Resurs 1-4 Rocket - Pass Details

Date: 14 July 2020
Orbit: 799 x 814 km, 98.6° (Epoch: 14 August)

Event Time Altitude Azimuth Distance (km) Brightness Sun altitude
Rises 03:02:18 0° 359° (N) 3,349 6.0 -6.8°
Reaches altitude 10° 03:05:54 10° 334° (NNW) 2,410 4.8 -6.4°
Maximum altitude 03:08:19 13° 306° (NW) 2,178 4.2 -6.1°
Drops below altitude 10° 03:10:44 10° 279° (W) 2,400 4.2 -5.8°
Enters shadow 03:13:26 - 258° (WSW) 3,053 4.6 -5.4°
